Location: Haliburton Scout Reserve
(45.0900°N, 78.3200°W)
Time: 08:33:33
(UTC-04:00)

IDEFIX/ARIANE 42P - Visible Passes

Search period start: 21 June 2018 00:00
Search period end: 01 July 2018 00:00
Orbit: 786 x 802 km, 98.3° (Epoch: 20 June)

Date Brightness Start Highest point End Pass type
(mag) Time Alt. Az. Time Alt. Az. Time Alt. Az.
23 Jun 5.4 04:38:07 10° ENE 04:40:15 12° E 04:42:22 10° ESE visible
26 Jun 5.2 04:51:41 10° NE 04:55:05 17° E 04:58:26 10° SE visible
30 Jun 5.3 04:38:51 10° ENE 04:41:10 13° E 04:43:29 10° ESE visible
